Powrót do katalogu

STARLINK-33594

AktywnyŁącznośćVLEO
NORAD 62770·PAYLOAD·🇺🇸 United States

Wystrzelony Jan 21, 2025 z Vandenberg Space Force Base

Loading…

Następne Przeloty (najbliższe 24 godziny)

TLE

ŚwieżeSource: CelesTrak SupGP

Epoka: Sep 15, 2026, 03:22 UTC

1 62770C 25015N   26258.14076389  .00008707  00000+0  28001-3 0  2589
2 62770  53.1566 160.7710 0001261  87.8202 178.3165 15.31696815    16

Śledź STARLINK-33594 w czasie rzeczywistym z AllMySat

Download on the App Store